Weather in Zinyaki

Russia / Nizhny Novgorod Oblast'     56°32′25″N   43°49′38″E
temp.,
°C
wind,
m/s
gust,
m/s
humid.,
%
clouds,
%
prec.,
mm/h
press.,
hPa
HPBL,
m
3 march, wed
wed300:00−4nw6139070 0.1 1003481
03:00−7nw6139176 0.1 1005423
06:00−7nw6139397 0.1 1006511
09:00−7nw6119298 0.1 1008609
12:00−5wnw6990100 0.1 1009661
15:00−4wnw6985100 0.1 1009796
18:00−6w399494 0.0 1007239
21:00−4wsw5129496 0.0 1006413
4 march, thu
thu400:00−2wsw61292100 0.1 1002690
03:00−2wsw71394100 0.3 1000698
06:00−2wsw7139399 0.2 996660
09:000w7129399 0.7 994994
12:000wnw81375100 0.3 9941401
15:00−1wnw8128572 0.3 9961147
18:00−4w51188100 0.1 997552
21:00−7wnw4992100 0.1 999225
5 march, fri
fri500:00−9nnw239598 0.0 100025
03:00−12n339399 0.0 100226
06:00−15n239136 0.0 100420
09:00−12nnw228919 0.0 100589
12:00−8wnw22820 0.0 1006310
15:00−6w24802 0.0 1008526
18:00−8wsw239097 0.0 100823
21:00−11wsw239380 0.0 101021
6 march, sat
sat600:00−11sw229469 0.0 101021
03:00−14wnw119676 0.0 101121
06:00−11nw229698 0.2 101130
09:00−12nnw479597 0.3 1012250
12:00−11nw569198 0.0 1013401
15:00−11nw578263 0.0 1012672
18:00−14wnw349167 0.0 101340
21:00−16w349669 0.0 101447
7 march, sun
sun700:00−15wsw379699 0.1 1012163
03:00−17sw359893 0.1 101189
06:00−14ssw5119263 0.0 1007261
09:00−10ssw8159081 0.1 1004782
12:00−7ssw91492100 0.9 9991064
15:00−5ssw91492100 1.9 9951072
18:00−4ssw71392100 0.8 993817
21:00−5nw4693100 2.5 991327